Regional Weather Roundup
Issued by NWS

Home | Current Version | Previous Version | Graphics & Text | Print | Product List | Glossary Off
Versions: 1 2 3 4 5 6 7 8 9 10 11 12 13 14 15 16 17 18 19 20 21 22 23 24 25 26 27 28 29 30 31 32 33 34 35 36 37 38 39 40 41 42 43 44 45 46 47 48 49 50

000
ASUS43 KMKX 262010
RWRWI

WISCONSIN REGIONAL WEATHER ROUNDUP
NATIONAL WEATHER SERVICE MILWAUKEE/SULLIVAN WI
200 PM CST MON JAN 26 2015

NOTE: "FAIR" INDICATES FEW OR NO CLOUDS BELOW 12,000 FEET WITH NO
SIGNIFICANT WEATHER AND/OR OBSTRUCTIONS TO VISIBILITY.

WIZ001-002-006>008-014>016-023>028-262100-
NORTHWEST WISCONSIN

CITY           SKY/WX    TMP DP  RH WIND       PRES   REMARKS
SUPERIOR ARPT  LGT SNOW  28  27  94 CALM      29.72R
ASHLAND        CLOUDY    26  19  74 S5        29.72R WCI  20
HAYWARD        CLOUDY    23  20  88 S6        29.70R FOG     WCI  16
SIREN          CLOUDY    32  31  94 CALM      29.71R
CUMBERLAND     CLOUDY    27  23  86 S3        29.70R
RICE LAKE      MIX PCPN  25  23  91 SE3       29.73R
CHETEK         MIX PCPN  25  23  92 SE3       29.72R
LADYSMITH      CLOUDY    24  22  91 S3        29.73S
EAU CLAIRE     CLOUDY    26  23  88 SE3       29.72S
MENOMONIE      CLOUDY    28  26  91 E3        29.72R
NEW RICHMOND   CLOUDY    37  31  78 NW7       29.71R WCI  32
OSCEOLA        CLOUDY    39  32  76 NW7       29.74R WCI  34
$$

WIZ003>005-009-010-017-018-262100-
NORTH CENTRAL WISCONSIN

CITY           SKY/WX    TMP DP  RH WIND       PRES   REMARKS
MANITOWISH WTR CLOUDY    19  15  84 S6        29.70R WCI  11
ARBOR VITAE    CLOUDY    22  18  84 S9        29.71R WCI  11
WOODRUFF       CLOUDY    22  18  84 S9        29.71R WCI  11
RHINELANDER    LGT SNOW  19  14  81 S6        29.72S WCI  11
EAGLE RIVER    LGT SNOW  20  15  78 S10G17    29.71S WCI   9
LAND O LAKES   FLURRIES  22  16  79 S7        29.71S WCI  13
PHILLIPS       CLOUDY    20  17  88 S6        29.70R WCI  12
TOMAHAWK       CLOUDY    19  15  86 CALM      29.73S
MEDFORD        MIX PCPN  20  18  92 SE7       29.71S WCI  11
MERRILL        LGT SNOW  20  17  88 SE5       29.74S WCI  13
$$

WIZ029-030-035-036-043>047-262100-
CENTRAL WISCONSIN

CITY           SKY/WX    TMP DP  RH WIND       PRES   REMARKS
WAUSAU         LGT SNOW  19  16  88 S8        29.74F FOG     WCI   9
MOSINEE        NOT AVBL
MARSHFIELD     CLOUDY    22  19  89 S9        29.74S FOG     WCI  12
STEVENS POINT  LGT SNOW  19  17  91 SE6       29.78R WCI  11
WAUPACA        LGT SNOW  25  20  82 SE8       29.80F WCI  16
WAUTOMA        CLOUDY    22  20  92 SE7       29.80F FOG     WCI  14
WISC RAPIDS    LGT SNOW  22  18  85 SE7       29.78S FOG     WCI  13
CAMP DOUGLAS   NOT AVBL
$$

WIZ011>013-019>022-031-037>040-048>050-262100-
NORTHEAST WISCONSIN

CITY           SKY/WX    TMP DP  RH WIND       PRES   REMARKS
ANTIGO         LGT SNOW  18  15  88 SE14      29.75S WCI   5
SHAWANO        LGT SNOW  26  19  77 S8        29.82F WCI  17
OCONTO         CLOUDY    24  22  89 CALM      29.84F
STURGEON BAY   CLOUDY    25  19  80 S9        29.86F WCI  15
GREEN BAY      LGT SNOW  26  21  81 SE8       29.83F WCI  18
MANITOWOC      CLOUDY    28  20  71 S14       29.85F WCI  17
APPLETON       NOT AVBL
CLINTONVILLE   LGT SNOW  25  21  86 S8        29.81F WCI  16
OSHKOSH        LGT SNOW  24  20  84 S8        29.81F FOG     WCI  15
$$

WIZ032>034-041-042-053>061-262100-
SOUTHWEST WISCONSIN

CITY           SKY/WX    TMP DP  RH WIND       PRES   REMARKS
LA CROSSE      CLOUDY    28  25  88 S9        29.75F WCI  19
SPARTA         MIX PCPN  25  25  97 S6        29.76F WCI  18
VIROQUA        CLOUDY    25  25 100 S6        29.72F WCI  18
BOSCOBEL       CLOUDY    25  22  88 S3        29.78F FOG
PRAIRIE DU CHI CLOUDY    28  24  86 SE3       29.77F FOG
PLATTEVILLE    CLOUDY    24  22  94 SE8       29.77F WCI  15
$$

WIZ056-057-062-063-064-067-068-262100-
SOUTH CENTRAL WISCONSIN

CITY           SKY/WX    TMP DP  RH WIND       PRES   REMARKS
REEDSBURG      CLOUDY    22  20  94 S3        29.77S FOG
BARABOO/DELLS  CLOUDY    22  20  92 SE7       29.77S FOG     WCI  13
LONE ROCK      CLOUDY    23  22  96 E5        29.79F FOG     WCI  17
MINERAL POINT  CLOUDY    25  23  93 S8        29.76S FOG     WCI  16
MADISON        LGT SNOW  22  19  89 SE12      29.80F FOG     WCI  10
MIDDLETON      CLOUDY    24  21  89 SE8       29.80F WCI  14
WATERTOWN      FLURRIES  24  21  89 S6        29.82F WCI  17
MONROE         CLOUDY    23  21  93 SE9       29.79F WCI  13
JANESVILLE     CLOUDY    25  21  86 S6        29.83F FOG     WCI  18
$$

WIZ051-052-058>065-066-070>072-262100-
SOUTHEAST WISCONSIN

CITY           SKY/WX    TMP DP  RH WIND       PRES   REMARKS
MILWAUKEE      CLOUDY    27  15  61 SE6       29.85F WCI  20
WAUKESHA       LGT SNOW  25  14  63 SE7       29.85F VSB 1   WCI  17
MILWAUKEE/TIMM LGT SNOW  27  18  69 SE7       29.86F WCI  19
RACINE         FLURRIES  27  17  66 SE8       29.87F WCI  19
BURLINGTON     LGT SNOW  24  20  83 S5        29.85S WCI  18
KENOSHA        FLURRIES  27  16  63 S5        29.85F WCI  22
FOND DU LAC    LGT SNOW  24  19  81 S9        29.83F WCI  14
SHEBOYGAN      LGT SNOW  27  20  75 S9        29.85F WCI  18
WEST BEND      LGT SNOW  27  19  74 SE5       29.84S WCI  21
JUNEAU         FLURRIES  24  21  88 SE9       29.82F WCI  14
$$

LSZ147-162-262100-
LAKE SUPERIOR

STATION/POSITION TIME  TEMP    WIND        PRES    WAVE
                       AIR SEA DIR/SP/G            HT/PER
                 (UTC) (F)     (DEG/KT/KT) (MB)    (FT/S)
DEVILS ISLAND    2000   24     160/  3/  5 1007.5R
PORT WING        1900   27     180/  6/  7 1006.1
SAXON HARBOR     1900   26      CALM  / 10 1006.4
$$

LMZ867-665-643>646-262100-
LAKE MICHIGAN

STATION/POSITION TIME  TEMP    WIND        PRES    WAVE
                       AIR SEA DIR/SP/G            HT/PER
                 (UTC) (F)     (DEG/KT/KT) (MB)    (FT/S)
NORTHPORT PIER   1918   24     150/ 13/ 19 1011.9F
SISTER BAY       1928   26     190/ 15/ 20   N/A
KEWAUNEE LAKESHO 1900   26     170/ 11/ 15 1010.8F
SHEBOYGAN LAKESH 2000   26     180/ 14/ 16 1012.0F
PORT WASHINGTON  1900   27     170/  7/ 10 1012.5
MILWAUKEE LAKESH 1900   27     190/  6/  8   N/A
KENOSHA   LAKESH 2000   26     140/  9/ 10 1011.5F
$$

TC  - TEMPERATURE IN CELSIUS
VSB - VISIBILITY IN STATUTE MILES
WCI - WIND CHILL INDEX
HX  - HEAT INDEX




USA.gov is the U.S. government's official web portal to all federal, state and local government web resources and services.